| time (UTC) | temp C | wind direction | speed KPH | gust KPH | rain 1hr cm | rain 24hr cm | rain mn cm | humidity % | barometer mb |
| 20260506115408 | 10 | 77 | 0.0 | 0.0 | 0.00 | 0.00 | 0.00 | 35 | |
| 20260506115301 | 10 | 129 | 0.0 | 0.0 | 0.00 | 0.00 | 0.00 | 36 | |
| 20260506114908 | 10 | 129 | 0.0 | 0.0 | 0.00 | 0.00 | 0.00 | 36 | |
| 20260506114709 | 10 | 110 | 0.0 | 0.0 | 0.00 | 0.00 | 0.00 | 36 | |
| 20260506114408 | 10 | 110 | 0.0 | 0.0 | 0.00 | 0.00 | 0.00 | 36 | |
| 20260506114313 | 10 | 124 | 0.0 | 0.0 | 0.00 | 0.00 | 0.00 | 36 | |
| 20260506113908 | 10 | 124 | 0.0 | 0.0 | 0.00 | 0.00 | 0.00 | 36 | |
| 20260506113624 | 10 | 109 | 0.0 | 0.0 | 0.00 | 0.00 | 0.00 | 36 | |
| 20260506113408 | 10 | 109 | 0.0 | 0.0 | 0.00 | 0.00 | 0.00 | 36 | |
| 20260506113258 | 10 | 119 | 0.0 | 3.2 | 0.00 | 0.00 | 0.00 | 36 | |
| 20260506112908 | 10 | 119 | 0.0 | 3.2 | 0.00 | 0.00 | 0.00 | 36 | |
| 20260506112737 | 10 | 109 | 0.0 | 3.2 | 0.00 | 0.00 | 0.00 | 36 | |
| 20260506112408 | 10 | 109 | 0.0 | 3.2 | 0.00 | 0.00 | 0.00 | 36 | |
| 20260506112201 | 11 | 126 | 0.0 | 0.0 | 0.00 | 0.00 | 0.00 | 37 | |
| 20260506111908 | 11 | 126 | 0.0 | 0.0 | 0.00 | 0.00 | 0.00 | 37 | |
| 20260506111524 | 11 | 198 | 0.0 | 1.6 | 0.00 | 0.00 | 0.00 | 37 | |
| 20260506111408 | 11 | 198 | 0.0 | 1.6 | 0.00 | 0.00 | 0.00 | 37 | |
| 20260506111008 | 11 | 196 | 0.0 | 3.2 | 0.00 | 0.00 | 0.00 | 37 | |
| 20260506110908 | 11 | 196 | 0.0 | 3.2 | 0.00 | 0.00 | 0.00 | 37 | |
| 20260506110521 | 11 | 192 | 0.0 | 3.2 | 0.00 | 0.00 | 0.00 | 37 | |
| 20260506110018 | 11 | 196 | 0.0 | 3.2 | 0.00 | 0.00 | 0.00 | 37 | |
| 20260506105908 | 11 | 196 | 0.0 | 3.2 | 0.00 | 0.00 | 0.00 | 37 | |
| 20260506105532 | 11 | 204 | 0.0 | 3.2 | 0.00 | 0.00 | 0.00 | 37 | |
| 20260506105409 | 11 | 204 | 0.0 | 3.2 | 0.00 | 0.00 | 0.00 | 37 | |
| 20260506105010 | 11 | 189 | 0.0 | 4.8 | 0.00 | 0.00 | 0.00 | 37 | |
| 20260506104908 | 11 | 189 | 0.0 | 4.8 | 0.00 | 0.00 | 0.00 | 37 | |
| 20260506104033 | 11 | 194 | 0.0 | 3.2 | 0.00 | 0.00 | 0.00 | 37 | |
| 20260506103909 | 11 | 194 | 0.0 | 3.2 | 0.00 | 0.00 | 0.00 | 37 | |
| 20260506103500 | 11 | 199 | 0.0 | 6.4 | 0.00 | 0.00 | 0.00 | 37 | |
| 20260506103408 | 11 | 199 | 0.0 | 6.4 | 0.00 | 0.00 | 0.00 | 37 | |
| 20260506103041 | 11 | 200 | 1.6 | 6.4 | 0.00 | 0.00 | 0.00 | 37 | |
| 20260506102908 | 11 | 200 | 1.6 | 6.4 | 0.00 | 0.00 | 0.00 | 37 | |
| 20260506102509 | 11 | 202 | 0.0 | 4.8 | 0.00 | 0.00 | 0.00 | 37 | |
| 20260506102408 | 11 | 202 | 0.0 | 4.8 | 0.00 | 0.00 | 0.00 | 37 | |
| 20260506102006 | 11 | 193 | 0.0 | 1.6 | 0.00 | 0.00 | 0.00 | 37 | |
| 20260506101909 | 11 | 193 | 0.0 | 1.6 | 0.00 | 0.00 | 0.00 | 37 | |
| 20260506101607 | 11 | 214 | 0.0 | 1.6 | 0.00 | 0.00 | 0.00 | 37 | |
| 20260506101408 | 11 | 214 | 0.0 | 1.6 | 0.00 | 0.00 | 0.00 | 37 | |
| 20260506101041 | 11 | 181 | 0.0 | 0.0 | 0.00 | 0.00 | 0.00 | 37 | |
| 20260506100908 | 11 | 181 | 0.0 | 0.0 | 0.00 | 0.00 | 0.00 | 37 | |
| 20260506100517 | 11 | 188 | 0.0 | 0.0 | 0.00 | 0.00 | 0.00 | 37 | |
| 20260506100408 | 11 | 188 | 0.0 | 0.0 | 0.00 | 0.00 | 0.00 | 37 | |
| 20260506100019 | 11 | 202 | 0.0 | 0.0 | 0.00 | 0.00 | 0.00 | 37 | |
| 20260506095908 | 11 | 202 | 0.0 | 0.0 | 0.00 | 0.00 | 0.00 | 37 | |
| 20260506095616 | 11 | 186 | 0.0 | 1.6 | 0.00 | 0.00 | 0.00 | 37 | |
| 20260506095408 | 11 | 186 | 0.0 | 1.6 | 0.00 | 0.00 | 0.00 | 37 | |
| 20260506095040 | 11 | 195 | 0.0 | 1.6 | 0.00 | 0.00 | 0.00 | 37 | |
| 20260506094908 | 11 | 195 | 0.0 | 1.6 | 0.00 | 0.00 | 0.00 | 37 | |
| 20260506094523 | 11 | 196 | 0.0 | 0.0 | 0.00 | 0.00 | 0.00 | 37 | |
| 20260506094408 | 11 | 196 | 0.0 | 0.0 | 0.00 | 0.00 | 0.00 | 37 | |
| 20260506094054 | 11 | 184 | 0.0 | 0.0 | 0.00 | 0.00 | 0.00 | 37 | |
| 20260506093908 | 11 | 184 | 0.0 | 0.0 | 0.00 | 0.00 | 0.00 | 37 | |
| 20260506093545 | 11 | 177 | 0.0 | 0.0 | 0.00 | 0.00 | 0.00 | 37 | |
| 20260506093408 | 11 | 177 | 0.0 | 0.0 | 0.00 | 0.00 | 0.00 | 37 | |
| 20260506093051 | 11 | 181 | 0.0 | 0.0 | 0.00 | 0.00 | 0.00 | 37 | |
| 20260506092908 | 11 | 181 | 0.0 | 0.0 | 0.00 | 0.00 | 0.00 | 37 | |
| 20260506092533 | 12 | 190 | 0.0 | 3.2 | 0.00 | 0.00 | 0.00 | 37 | |
| 20260506092408 | 12 | 190 | 0.0 | 3.2 | 0.00 | 0.00 | 0.00 | 37 | |
| 20260506092125 | 12 | 192 | 0.0 | 6.4 | 0.00 | 0.00 | 0.00 | 37 | |
| 20260506091908 | 12 | 192 | 0.0 | 6.4 | 0.00 | 0.00 | 0.00 | 37 | |
| 20260506091752 | 12 | 200 | 0.0 | 6.4 | 0.00 | 0.00 | 0.00 | 37 | |
| 20260506091408 | 12 | 200 | 0.0 | 6.4 | 0.00 | 0.00 | 0.00 | 37 | |
| 20260506091133 | 12 | 205 | 0.0 | 6.4 | 0.00 | 0.00 | 0.00 | 37 | |
| 20260506090908 | 12 | 205 | 0.0 | 6.4 | 0.00 | 0.00 | 0.00 | 37 | |
| 20260506090642 | 12 | 198 | 0.0 | 6.4 | 0.00 | 0.00 | 0.00 | 37 | |
| 20260506090408 | 12 | 198 | 0.0 | 6.4 | 0.00 | 0.00 | 0.00 | 37 | |
| 20260506090037 | 12 | 201 | 0.0 | 4.8 | 0.00 | 0.00 | 0.00 | 37 | |
| 20260506085909 | 12 | 201 | 0.0 | 4.8 | 0.00 | 0.00 | 0.00 | 37 | |
| 20260506085517 | 12 | 202 | 0.0 | 4.8 | 0.00 | 0.00 | 0.00 | 37 | |
| 20260506085408 | 12 | 202 | 0.0 | 4.8 | 0.00 | 0.00 | 0.00 | 37 | |
| 20260506085122 | 12 | 202 | 0.0 | 4.8 | 0.00 | 0.00 | 0.00 | 37 | |
| 20260506084909 | 12 | 202 | 0.0 | 4.8 | 0.00 | 0.00 | 0.00 | 37 | |
| 20260506084640 | 12 | 202 | 0.0 | 4.8 | 0.00 | 0.00 | 0.00 | 37 | |
| 20260506084410 | 12 | 202 | 0.0 | 4.8 | 0.00 | 0.00 | 0.00 | 37 | |
| 20260506084116 | 12 | 203 | 0.0 | 4.8 | 0.00 | 0.00 | 0.00 | 37 | |
| 20260506083908 | 12 | 203 | 0.0 | 4.8 | 0.00 | 0.00 | 0.00 | 37 | |
| 20260506083656 | 12 | 202 | 0.0 | 4.8 | 0.00 | 0.00 | 0.00 | 37 | |
| 20260506083409 | 12 | 202 | 0.0 | 4.8 | 0.00 | 0.00 | 0.00 | 37 | |
| 20260506083128 | 12 | 209 | 1.6 | 4.8 | 0.00 | 0.00 | 0.00 | 37 | |
| 20260506082908 | 12 | 209 | 1.6 | 4.8 | 0.00 | 0.00 | 0.00 | 37 | |
| 20260506082759 | 12 | 205 | 0.0 | 3.2 | 0.00 | 0.00 | 0.00 | 37 | |
| 20260506082408 | 12 | 205 | 0.0 | 3.2 | 0.00 | 0.00 | 0.00 | 37 | |
| 20260506082327 | 12 | 207 | 0.0 | 4.8 | 0.00 | 0.00 | 0.00 | 37 | |
| 20260506081911 | 12 | 197 | 0.0 | 4.8 | 0.00 | 0.00 | 0.00 | 37 | |
| 20260506081908 | 12 | 207 | 0.0 | 4.8 | 0.00 | 0.00 | 0.00 | 37 | |
| 20260506081408 | 12 | 197 | 0.0 | 4.8 | 0.00 | 0.00 | 0.00 | 37 | |
| 20260506081258 | 12 | 202 | 0.0 | 4.8 | 0.00 | 0.00 | 0.00 | 37 | |
| 20260506080908 | 12 | 202 | 0.0 | 4.8 | 0.00 | 0.00 | 0.00 | 37 | |
| 20260506080905 | 12 | 204 | 0.0 | 4.8 | 0.00 | 0.00 | 0.00 | 37 | |
| 20260506080816 | 12 | 204 | 0.0 | 4.8 | 0.00 | 0.00 | 0.00 | 37 | |
| 20260506080408 | 12 | 204 | 0.0 | 4.8 | 0.00 | 0.00 | 0.00 | 37 | |
| 20260506080240 | 12 | 214 | 0.0 | 3.2 | 0.00 | 0.00 | 0.00 | 37 | |
| 20260506073408 | 12 | 224 | 0.0 | 0.0 | 0.00 | 0.00 | 0.00 | 37 | |
| 20260506073139 | 13 | 224 | 0.0 | 0.0 | 0.00 | 0.00 | 0.00 | 36 | |
| 20260506072908 | 13 | 224 | 0.0 | 0.0 | 0.00 | 0.00 | 0.00 | 36 | |
| 20260506072815 | 13 | 223 | 0.0 | 0.0 | 0.00 | 0.00 | 0.00 | 37 | |
| 20260506072408 | 13 | 223 | 0.0 | 0.0 | 0.00 | 0.00 | 0.00 | 37 | |
| 20260506072145 | 13 | 224 | 0.0 | 0.0 | 0.00 | 0.00 | 0.00 | 37 | |
| 20260506071908 | 13 | 224 | 0.0 | 0.0 | 0.00 | 0.00 | 0.00 | 37 | |
| 20260506071647 | 13 | 219 | 0.0 | 0.0 | 0.00 | 0.00 | 0.00 | 37 | |
| 20260506071408 | 13 | 219 | 0.0 | 0.0 | 0.00 | 0.00 | 0.00 | 37 | |
| 20260506071240 | 13 | 212 | 0.0 | 0.0 | 0.00 | 0.00 | 0.00 | 37 | |
| 20260506070908 | 13 | 212 | 0.0 | 0.0 | 0.00 | 0.00 | 0.00 | 37 | |
| 20260506070642 | 13 | 220 | 0.0 | 0.0 | 0.00 | 0.00 | 0.00 | 37 | |
| 20260506070408 | 13 | 220 | 0.0 | 0.0 | 0.00 | 0.00 | 0.00 | 37 | |
| 20260506070114 | 13 | 226 | 0.0 | 0.0 | 0.00 | 0.00 | 0.00 | 37 | |
| 20260506062408 | 14 | 236 | 0.0 | 1.6 | 0.00 | 0.00 | 0.00 | 37 | |
| 20260506062259 | 15 | 248 | 0.0 | 9.7 | 0.00 | 0.00 | 0.00 | 37 | |
| 20260506061908 | 15 | 248 | 0.0 | 9.7 | 0.00 | 0.00 | 0.00 | 37 | |
| 20260506061656 | 15 | 251 | 0.0 | 9.7 | 0.00 | 0.00 | 0.00 | 37 | |
| 20260506061408 | 15 | 251 | 0.0 | 9.7 | 0.00 | 0.00 | 0.00 | 37 | |
| 20260506061400 | 15 | 256 | 1.6 | 9.7 | 0.00 | 0.00 | 0.00 | 36 | |
| 20260506060908 | 15 | 256 | 1.6 | 9.7 | 0.00 | 0.00 | 0.00 | 36 | |
| 20260506060607 | 15 | 253 | 0.0 | 11.3 | 0.00 | 0.00 | 0.00 | 36 | |
| 20260506060408 | 15 | 253 | 0.0 | 11.3 | 0.00 | 0.00 | 0.00 | 36 | |
| 20260506051408 | 15 | 242 | 0.0 | 0.0 | 0.00 | 0.00 | 0.00 | 36 | |
| 20260506051257 | 15 | 229 | 0.0 | 0.0 | 0.00 | 0.00 | 0.00 | 36 | |
| 20260506050908 | 15 | 229 | 0.0 | 0.0 | 0.00 | 0.00 | 0.00 | 36 | |
| 20260506050758 | 15 | 245 | 0.0 | 0.0 | 0.00 | 0.00 | 0.00 | 37 | |
| 20260506050408 | 15 | 245 | 0.0 | 0.0 | 0.00 | 0.00 | 0.00 | 37 | |
| 20260506050246 | 15 | 250 | 0.0 | 0.0 | 0.00 | 0.00 | 0.00 | 36 | |
| 20260506044908 | 16 | 269 | 0.0 | 0.0 | 0.00 | 0.00 | 0.00 | 36 | |
| 20260506044525 | 16 | 265 | 0.0 | 8.0 | 0.00 | 0.00 | 0.00 | 36 | |
| 20260506044410 | 16 | 265 | 0.0 | 8.0 | 0.00 | 0.00 | 0.00 | 36 | |
| 20260506044128 | 16 | 264 | 0.0 | 11.3 | 0.00 | 0.00 | 0.00 | 36 | |
| 20260506043908 | 16 | 264 | 0.0 | 11.3 | 0.00 | 0.00 | 0.00 | 36 | |
| 20260506043648 | 16 | 265 | 1.6 | 11.3 | 0.00 | 0.00 | 0.00 | 36 | |
| 20260506043408 | 16 | 265 | 1.6 | 11.3 | 0.00 | 0.00 | 0.00 | 36 | |
| 20260506043131 | 16 | 262 | 3.2 | 12.9 | 0.00 | 0.00 | 0.00 | 36 | |
| 20260506042908 | 16 | 262 | 3.2 | 12.9 | 0.00 | 0.00 | 0.00 | 36 | |
| 20260506042716 | 16 | 255 | 4.8 | 14.5 | 0.00 | 0.00 | 0.00 | 36 | |
| 20260506042408 | 16 | 255 | 4.8 | 14.5 | 0.00 | 0.00 | 0.00 | 36 | |
| 20260506042155 | 16 | 255 | 4.8 | 14.5 | 0.00 | 0.00 | 0.00 | 36 | |
| 20260506041908 | 16 | 255 | 4.8 | 14.5 | 0.00 | 0.00 | 0.00 | 36 | |
| 20260506041720 | 16 | 253 | 4.8 | 12.9 | 0.00 | 0.00 | 0.00 | 36 | |
| 20260506041408 | 16 | 253 | 4.8 | 12.9 | 0.00 | 0.00 | 0.00 | 36 | |
| 20260506041044 | 16 | 247 | 1.6 | 9.7 | 0.00 | 0.00 | 0.00 | 36 | |
| 20260506040910 | 16 | 247 | 1.6 | 9.7 | 0.00 | 0.00 | 0.00 | 36 | |
| 20260506040634 | 16 | 253 | 1.6 | 9.7 | 0.00 | 0.00 | 0.00 | 36 | |
| 20260506040408 | 16 | 253 | 1.6 | 9.7 | 0.00 | 0.00 | 0.00 | 36 | |
| 20260506040223 | 16 | 252 | 0.0 | 9.7 | 0.00 | 0.00 | 0.00 | 36 | |
| 20260506035908 | 16 | 252 | 0.0 | 9.7 | 0.00 | 0.00 | 0.00 | 36 | |
| 20260506035733 | 16 | 239 | 0.0 | 0.0 | 0.00 | 0.00 | 0.00 | 36 | |
| 20260506035408 | 16 | 239 | 0.0 | 0.0 | 0.00 | 0.00 | 0.00 | 36 | |
| 20260506035231 | 17 | 234 | 0.0 | 3.2 | 0.00 | 0.00 | 0.00 | 36 | |
| 20260506034908 | 17 | 234 | 0.0 | 3.2 | 0.00 | 0.00 | 0.00 | 36 | |
| 20260506034655 | 17 | 238 | 0.0 | 3.2 | 0.00 | 0.00 | 0.00 | 36 | |
| 20260506034408 | 17 | 238 | 0.0 | 3.2 | 0.00 | 0.00 | 0.00 | 36 | |
| 20260506034201 | 17 | 261 | 0.0 | 1.6 | 0.00 | 0.00 | 0.00 | 36 | |
| 20260506033908 | 17 | 261 | 0.0 | 1.6 | 0.00 | 0.00 | 0.00 | 36 | |
| 20260506033556 | 17 | 262 | 0.0 | 12.9 | 0.00 | 0.00 | 0.00 | 36 | |
| 20260506033409 | 17 | 262 | 0.0 | 12.9 | 0.00 | 0.00 | 0.00 | 36 | |
| 20260506033216 | 17 | 257 | 3.2 | 12.9 | 0.00 | 0.00 | 0.00 | 36 | |
| 20260506032908 | 17 | 257 | 3.2 | 12.9 | 0.00 | 0.00 | 0.00 | 36 | |
| 20260506032733 | 17 | 260 | 3.2 | 14.5 | 0.00 | 0.00 | 0.00 | 36 | |
| 20260506032408 | 17 | 260 | 3.2 | 14.5 | 0.00 | 0.00 | 0.00 | 36 | |
| 20260506032110 | 17 | 259 | 4.8 | 14.5 | 0.00 | 0.00 | 0.00 | 36 | |
| 20260506031908 | 17 | 259 | 4.8 | 14.5 | 0.00 | 0.00 | 0.00 | 36 | |
| 20260506031732 | 17 | 265 | 6.4 | 14.5 | 0.00 | 0.00 | 0.00 | 36 | |
| 20260506031408 | 17 | 265 | 6.4 | 14.5 | 0.00 | 0.00 | 0.00 | 36 | |
| 20260506031150 | 17 | 264 | 6.4 | 16.1 | 0.00 | 0.00 | 0.00 | 36 | |
| 20260506030908 | 17 | 264 | 6.4 | 16.1 | 0.00 | 0.00 | 0.00 | 36 | |
| 20260506030638 | 17 | 263 | 9.7 | 16.1 | 0.00 | 0.00 | 0.00 | 36 | |
| 20260506030408 | 17 | 263 | 9.7 | 16.1 | 0.00 | 0.00 | 0.00 | 36 | |
| 20260506030205 | 17 | 262 | 9.7 | 16.1 | 0.00 | 0.00 | 0.00 | 36 | |
| 20260506025733 | 17 | 258 | 8.0 | 19.3 | 0.00 | 0.00 | 0.00 | 36 | |
| 20260506025408 | 17 | 258 | 8.0 | 19.3 | 0.00 | 0.00 | 0.00 | 36 | |
| 20260506025209 | 17 | 256 | 12.9 | 19.3 | 0.00 | 0.00 | 0.00 | 36 | |
| 20260506024908 | 17 | 256 | 12.9 | 19.3 | 0.00 | 0.00 | 0.00 | 36 | |
| 20260506024655 | 17 | 266 | 9.7 | 16.1 | 0.00 | 0.00 | 0.00 | 36 | |
| 20260506024408 | 17 | 266 | 9.7 | 16.1 | 0.00 | 0.00 | 0.00 | 36 | |
| 20260506024103 | 18 | 263 | 9.7 | 19.3 | 0.00 | 0.00 | 0.00 | 36 | |
| 20260506023908 | 18 | 263 | 9.7 | 19.3 | 0.00 | 0.00 | 0.00 | 36 | |
| 20260506023638 | 18 | 263 | 12.9 | 22.5 | 0.00 | 0.00 | 0.00 | 36 | |
| 20260506023408 | 18 | 263 | 12.9 | 22.5 | 0.00 | 0.00 | 0.00 | 36 | |
| 20260506023202 | 18 | 266 | 11.3 | 22.5 | 0.00 | 0.00 | 0.00 | 36 | |
| 20260506022908 | 18 | 266 | 11.3 | 22.5 | 0.00 | 0.00 | 0.00 | 36 | |
| 20260506022649 | 18 | 262 | 11.3 | 20.9 | 0.00 | 0.00 | 0.00 | 36 | |
| 20260506022408 | 18 | 262 | 11.3 | 20.9 | 0.00 | 0.00 | 0.00 | 36 | |
| 20260506022145 | 18 | 275 | 12.9 | 20.9 | 0.00 | 0.00 | 0.00 | 36 | |
| 20260506021908 | 18 | 275 | 12.9 | 20.9 | 0.00 | 0.00 | 0.00 | 36 | |
| 20260506021644 | 18 | 276 | 8.0 | 20.9 | 0.00 | 0.00 | 0.00 | 36 | |
| 20260506021408 | 18 | 276 | 8.0 | 20.9 | 0.00 | 0.00 | 0.00 | 36 | |
| 20260506021143 | 18 | 274 | 8.0 | 17.7 | 0.00 | 0.00 | 0.00 | 36 | |
| 20260506020908 | 18 | 274 | 8.0 | 17.7 | 0.00 | 0.00 | 0.00 | 36 | |
| 20260506020608 | 19 | 271 | 9.7 | 20.9 | 0.00 | 0.00 | 0.00 | 36 | |
| 20260506020408 | 19 | 271 | 9.7 | 20.9 | 0.00 | 0.00 | 0.00 | 36 | |
| 20260506020116 | 20 | 267 | 11.3 | 22.5 | 0.00 | 0.00 | 0.00 | 36 | |
| 20260506015908 | 20 | 267 | 11.3 | 22.5 | 0.00 | 0.00 | 0.00 | 36 | |
| 20260506015757 | 20 | 266 | 12.9 | 24.1 | 0.00 | 0.00 | 0.00 | 36 | |
| 20260506015408 | 20 | 266 | 12.9 | 24.1 | 0.00 | 0.00 | 0.00 | 36 | |
| 20260506015257 | 21 | 274 | 12.9 | 24.1 | 0.00 | 0.00 | 0.00 | 36 | |
| 20260506014908 | 21 | 274 | 12.9 | 24.1 | 0.00 | 0.00 | 0.00 | 36 | |
| 20260506014614 | 21 | 268 | 11.3 | 30.6 | 0.00 | 0.00 | 0.00 | 36 | |
| 20260506014408 | 21 | 268 | 11.3 | 30.6 | 0.00 | 0.00 | 0.00 | 36 | |
| 20260506014220 | 22 | 265 | 16.1 | 30.6 | 0.00 | 0.00 | 0.00 | 36 | |
| 20260506013908 | 22 | 265 | 16.1 | 30.6 | 0.00 | 0.00 | 0.00 | 36 | |
| 20260506013702 | 22 | 250 | 12.9 | 24.1 | 0.00 | 0.00 | 0.00 | 36 | |
| 20260506013408 | 22 | 250 | 12.9 | 24.1 | 0.00 | 0.00 | 0.00 | 36 | |
| 20260506013207 | 22 | 262 | 14.5 | 24.1 | 0.00 | 0.00 | 0.00 | 36 | |
| 20260506012908 | 22 | 262 | 14.5 | 24.1 | 0.00 | 0.00 | 0.00 | 36 | |
| 20260506012748 | 22 | 257 | 12.9 | 25.7 | 0.00 | 0.00 | 0.00 | 36 | |
| 20260506012408 | 22 | 257 | 12.9 | 25.7 | 0.00 | 0.00 | 0.00 | 36 | |
| 20260506012157 | 22 | 258 | 16.1 | 25.7 | 0.00 | 0.00 | 0.00 | 36 | |
| 20260506011908 | 22 | 258 | 16.1 | 25.7 | 0.00 | 0.00 | 0.00 | 36 | |
| 20260506011654 | 22 | 269 | 16.1 | 25.7 | 0.00 | 0.00 | 0.00 | 36 | |
| 20260506011408 | 22 | 269 | 16.1 | 25.7 | 0.00 | 0.00 | 0.00 | 36 | |
| 20260506011212 | 22 | 252 | 16.1 | 27.4 | 0.00 | 0.00 | 0.00 | 36 | |
| 20260506010908 | 22 | 252 | 16.1 | 27.4 | 0.00 | 0.00 | 0.00 | 36 | |
| 20260506010630 | 22 | 254 | 17.7 | 30.6 | 0.00 | 0.00 | 0.00 | 36 | |
| 20260506010408 | 22 | 254 | 17.7 | 30.6 | 0.00 | 0.00 | 0.00 | 36 | |
| 20260506010210 | 23 | 246 | 19.3 | 30.6 | 0.00 | 0.00 | 0.00 | 36 | |
| 20260506005908 | 23 | 246 | 19.3 | 30.6 | 0.00 | 0.00 | 0.00 | 36 | |
| 20260506005640 | 23 | 257 | 17.7 | 27.4 | 0.00 | 0.00 | 0.00 | 36 | |
| 20260506005408 | 23 | 257 | 17.7 | 27.4 | 0.00 | 0.00 | 0.00 | 36 | |
| 20260506005139 | 22 | 265 | 12.9 | 24.1 | 0.00 | 0.00 | 0.00 | 36 | |
| 20260506004908 | 22 | 265 | 12.9 | 24.1 | 0.00 | 0.00 | 0.00 | 36 | |
| 20260506004555 | 22 | 246 | 14.5 | 24.1 | 0.00 | 0.00 | 0.00 | 36 | |
| 20260506004408 | 22 | 246 | 14.5 | 24.1 | 0.00 | 0.00 | 0.00 | 36 | |
| 20260506004124 | 23 | 261 | 14.5 | 27.4 | 0.00 | 0.00 | 0.00 | 37 | |
| 20260506003908 | 23 | 261 | 14.5 | 27.4 | 0.00 | 0.00 | 0.00 | 37 | |
| 20260506003601 | 23 | 253 | 16.1 | 30.6 | 0.00 | 0.00 | 0.00 | 36 | |
| 20260506003408 | 23 | 253 | 16.1 | 30.6 | 0.00 | 0.00 | 0.00 | 36 | |
| 20260506003137 | 23 | 256 | 17.7 | 30.6 | 0.00 | 0.00 | 0.00 | 36 | |
| 20260506002908 | 23 | 256 | 17.7 | 30.6 | 0.00 | 0.00 | 0.00 | 36 | |
| 20260506002640 | 22 | 275 | 9.7 | 20.9 | 0.00 | 0.00 | 0.00 | 36 | |
| 20260506002409 | 22 | 275 | 9.7 | 20.9 | 0.00 | 0.00 | 0.00 | 36 | |
| 20260506002133 | 22 | 260 | 14.5 | 22.5 | 0.00 | 0.00 | 0.00 | 36 | |
| 20260506001908 | 22 | 260 | 14.5 | 22.5 | 0.00 | 0.00 | 0.00 | 36 | |
| 20260506001719 | 22 | 258 | 12.9 | 25.7 | 0.00 | 0.00 | 0.00 | 36 | |
| 20260506001408 | 22 | 258 | 12.9 | 25.7 | 0.00 | 0.00 | 0.00 | 36 | |
| 20260506001220 | 23 | 242 | 16.1 | 25.7 | 0.00 | 0.00 | 0.00 | 36 | |
| 20260506000908 | 23 | 242 | 16.1 | 25.7 | 0.00 | 0.00 | 0.00 | 36 | |
| 20260506000602 | 24 | 242 | 16.1 | 25.7 | 0.00 | 0.00 | 0.00 | 36 | |
| 20260506000408 | 24 | 242 | 16.1 | 25.7 | 0.00 | 0.00 | 0.00 | 36 | |
| 20260506000149 | 25 | 235 | 16.1 | 25.7 | 0.00 | 0.00 | 0.00 | 37 | |
| 20260505235908 | 25 | 235 | 16.1 | 25.7 | 0.00 | 0.00 | 0.00 | 37 | |
| 20260505235705 | 24 | 264 | 14.5 | 25.7 | 0.00 | 0.00 | 0.00 | 37 | |
| 20260505235408 | 24 | 264 | 14.5 | 25.7 | 0.00 | 0.00 | 0.00 | 37 | |
| 20260505235129 | 24 | 243 | 14.5 | 27.4 | 0.00 | 0.00 | 0.00 | 36 | |
| 20260505234908 | 24 | 243 | 14.5 | 27.4 | 0.00 | 0.00 | 0.00 | 36 | |
| 20260505234655 | 25 | 231 | 17.7 | 27.4 | 0.00 | 0.00 | 0.00 | 36 | |
| 20260505234408 | 25 | 231 | 17.7 | 27.4 | 0.00 | 0.00 | 0.00 | 36 | |
| 20260505234217 | 24 | 241 | 16.1 | 27.4 | 0.00 | 0.00 | 0.00 | 36 | |
| 20260505233908 | 24 | 241 | 16.1 | 27.4 | 0.00 | 0.00 | 0.00 | 36 | |
| 20260505233630 | 24 | 266 | 16.1 | 33.8 | 0.00 | 0.00 | 0.00 | 36 | |
| 20260505233408 | 24 | 266 | 16.1 | 33.8 | 0.00 | 0.00 | 0.00 | 36 | |
| 20260505233220 | 25 | 263 | 19.3 | 33.8 | 0.00 | 0.00 | 0.00 | 36 | |
| 20260505232908 | 25 | 263 | 19.3 | 33.8 | 0.00 | 0.00 | 0.00 | 36 | |
| 20260505232724 | 25 | 252 | 14.5 | 27.4 | 0.00 | 0.00 | 0.00 | 36 | |
| 20260505232409 | 25 | 252 | 14.5 | 27.4 | 0.00 | 0.00 | 0.00 | 36 | |
| 20260505232245 | 25 | 240 | 17.7 | 27.4 | 0.00 | 0.00 | 0.00 | 36 | |
| 20260505231908 | 25 | 240 | 17.7 | 27.4 | 0.00 | 0.00 | 0.00 | 36 | |
| 20260505231708 | 24 | 237 | 16.1 | 27.4 | 0.00 | 0.00 | 0.00 | 36 | |
| 20260505231408 | 24 | 237 | 16.1 | 27.4 | 0.00 | 0.00 | 0.00 | 36 | |
| 20260505231131 | 23 | 223 | 17.7 | 29.0 | 0.00 | 0.00 | 0.00 | 36 | |
| 20260505230908 | 23 | 223 | 17.7 | 29.0 | 0.00 | 0.00 | 0.00 | 36 | |
| 20260505230559 | 24 | 226 | 19.3 | 30.6 | 0.00 | 0.00 | 0.00 | 36 | |
| 20260505230408 | 24 | 226 | 19.3 | 30.6 | 0.00 | 0.00 | 0.00 | 36 | |
| 20260505230226 | 24 | 233 | 19.3 | 30.6 | 0.00 | 0.00 | 0.00 | 36 | |
| 20260505225908 | 24 | 233 | 19.3 | 30.6 | 0.00 | 0.00 | 0.00 | 36 | |
| 20260505225639 | 25 | 235 | 17.7 | 25.7 | 0.00 | 0.00 | 0.00 | 36 | |
| 20260505225408 | 25 | 235 | 17.7 | 25.7 | 0.00 | 0.00 | 0.00 | 36 | |
| 20260505225041 | 25 | 243 | 14.5 | 29.0 | 0.00 | 0.00 | 0.00 | 36 | |
| 20260505224909 | 25 | 243 | 14.5 | 29.0 | 0.00 | 0.00 | 0.00 | 36 | |
| 20260505224634 | 25 | 238 | 17.7 | 29.0 | 0.00 | 0.00 | 0.00 | 36 | |
| 20260505224408 | 25 | 238 | 17.7 | 29.0 | 0.00 | 0.00 | 0.00 | 36 | |
| 20260505224136 | 25 | 264 | 16.1 | 29.0 | 0.00 | 0.00 | 0.00 | 37 | |
| 20260505223908 | 25 | 264 | 16.1 | 29.0 | 0.00 | 0.00 | 0.00 | 37 | |
| 20260505223623 | 25 | 246 | 19.3 | 29.0 | 0.00 | 0.00 | 0.00 | 37 | |
| 20260505223408 | 25 | 246 | 19.3 | 29.0 | 0.00 | 0.00 | 0.00 | 37 | |
| 20260505223137 | 25 | 245 | 17.7 | 32.2 | 0.00 | 0.00 | 0.00 | 37 | |
| 20260505222908 | 25 | 245 | 17.7 | 32.2 | 0.00 | 0.00 | 0.00 | 37 | |
| 20260505222652 | 25 | 250 | 19.3 | 32.2 | 0.00 | 0.00 | 0.00 | 37 | |
| 20260505222408 | 25 | 250 | 19.3 | 32.2 | 0.00 | 0.00 | 0.00 | 37 | |
| 20260505222212 | 25 | 244 | 19.3 | 32.2 | 0.00 | 0.00 | 0.00 | 37 | |
| 20260505221908 | 25 | 244 | 19.3 | 32.2 | 0.00 | 0.00 | 0.00 | 37 | |
| 20260505221655 | 25 | 237 | 19.3 | 32.2 | 0.00 | 0.00 | 0.00 | 37 | |
| 20260505221409 | 25 | 237 | 19.3 | 32.2 | 0.00 | 0.00 | 0.00 | 37 | |
| 20260505221033 | 24 | 247 | 17.7 | 33.8 | 0.00 | 0.00 | 0.00 | 37 | |
| 20260505220908 | 24 | 247 | 17.7 | 33.8 | 0.00 | 0.00 | 0.00 | 37 | |
| 20260505220453 | 25 | 255 | 17.7 | 33.8 | 0.00 | 0.00 | 0.00 | 37 | |
| 20260505220408 | 25 | 255 | 17.7 | 33.8 | 0.00 | 0.00 | 0.00 | 37 | |
| 20260505215910 | 25 | 251 | 19.3 | 33.8 | 0.00 | 0.00 | 0.00 | 37 | |
| 20260505215408 | 23 | 248 | 17.7 | 33.8 | 0.00 | 0.00 | 0.00 | 37 | |
| 20260505214908 | 23 | 261 | 16.1 | 30.6 | 0.00 | 0.00 | 0.00 | 37 | |
| 20260505214409 | 22 | 250 | 16.1 | 33.8 | 0.00 | 0.00 | 0.00 | 37 | |
| 20260505212910 | 22 | 264 | 19.3 | 29.0 | 0.00 | 0.00 | 0.00 | 37 | |
| 20260505212502 | 22 | 265 | 17.7 | 29.0 | 0.00 | 0.00 | 0.00 | 38 | |
| 20260505212413 | 22 | 265 | 17.7 | 29.0 | 0.00 | 0.00 | 0.00 | 38 | |
| 20260505211956 | 22 | 248 | 14.5 | 25.7 | 0.00 | 0.00 | 0.00 | 38 | |
| 20260505210911 | 22 | 228 | 17.7 | 25.7 | 0.00 | 0.00 | 0.00 | 38 | |
| 20260505205409 | 22 | 223 | 16.1 | 24.1 | 0.00 | 0.00 | 0.00 | 38 | |
| 20260505204909 | 22 | 218 | 16.1 | 29.0 | 0.00 | 0.00 | 0.00 | 38 | |
| 20260505204502 | 22 | 225 | 17.7 | 29.0 | 0.00 | 0.00 | 0.00 | 38 | |
| 20260505204409 | 22 | 225 | 17.7 | 29.0 | 0.00 | 0.00 | 0.00 | 38 | |
| 20260505203915 | 23 | 226 | 14.5 | 22.5 | 0.00 | 0.00 | 0.00 | 38 | |
| 20260505202909 | 23 | 250 | 14.5 | 25.7 | 0.00 | 0.00 | 0.00 | 38 | |
| 20260505201643 | 23 | 250 | 8.0 | 16.1 | 0.00 | 0.00 | 0.00 | 39 | |
| 20260505201408 | 23 | 250 | 8.0 | 16.1 | 0.00 | 0.00 | 0.00 | 39 | |
| 20260505201051 | 23 | 307 | 4.8 | 12.9 | 0.00 | 0.00 | 0.00 | 40 | |
| 20260505200908 | 23 | 307 | 4.8 | 12.9 | 0.00 | 0.00 | 0.00 | 40 | |
| 20260505200634 | 23 | 280 | 8.0 | 14.5 | 0.00 | 0.00 | 0.00 | 40 | |
| 20260505200409 | 23 | 280 | 8.0 | 14.5 | 0.00 | 0.00 | 0.00 | 40 | |
| 20260505200139 | 23 | 303 | 6.4 | 14.5 | 0.00 | 0.00 | 0.00 | 40 | |
| 20260505195908 | 23 | 303 | 6.4 | 14.5 | 0.00 | 0.00 | 0.00 | 40 | |
| 20260505195637 | 23 | 348 | 4.8 | 14.5 | 0.00 | 0.00 | 0.00 | 42 | |
| 20260505195408 | 23 | 348 | 4.8 | 14.5 | 0.00 | 0.00 | 0.00 | 42 | |
| 20260505195322 | 24 | 261 | 6.4 | 14.5 | 0.00 | 0.00 | 0.00 | 40 | |
| 20260505194908 | 24 | 261 | 6.4 | 14.5 | 0.00 | 0.00 | 0.00 | 40 | |
| 20260505194548 | 24 | 320 | 4.8 | 12.9 | 0.00 | 0.00 | 0.00 | 41 | |
| 20260505194408 | 24 | 320 | 4.8 | 12.9 | 0.00 | 0.00 | 0.00 | 41 | |
| 20260505194220 | 23 | 313 | 4.8 | 12.9 | 0.00 | 0.00 | 0.00 | 41 | |
| 20260505193908 | 23 | 313 | 4.8 | 12.9 | 0.00 | 0.00 | 0.00 | 41 | |
| 20260505193627 | 23 | 312 | 4.8 | 9.7 | 0.00 | 0.00 | 0.00 | 42 | |
| 20260505193408 | 23 | 312 | 4.8 | 9.7 | 0.00 | 0.00 | 0.00 | 42 | |
| 20260505193223 | 23 | 314 | 4.8 | 9.7 | 0.00 | 0.00 | 0.00 | 40 | |
| 20260505192908 | 23 | 314 | 4.8 | 9.7 | 0.00 | 0.00 | 0.00 | 40 | |
| 20260505192721 | 23 | 324 | 4.8 | 14.5 | 0.00 | 0.00 | 0.00 | 39 | |
| 20260505192640 | 23 | 324 | 4.8 | 14.5 | 0.00 | 0.00 | 0.00 | 39 | |
| 20260505192408 | 23 | 324 | 4.8 | 14.5 | 0.00 | 0.00 | 0.00 | 39 | |
| 20260505192316 | 23 | 313 | 6.4 | 16.1 | 0.00 | 0.00 | 0.00 | 40 | |
| 20260505191908 | 23 | 313 | 6.4 | 16.1 | 0.00 | 0.00 | 0.00 | 40 | |
| 20260505191721 | 23 | 315 | 4.8 | 16.1 | 0.00 | 0.00 | 0.00 | 40 | |
| 20260505191408 | 23 | 315 | 4.8 | 16.1 | 0.00 | 0.00 | 0.00 | 40 | |
| 20260505191244 | 23 | 316 | 6.4 | 14.5 | 0.00 | 0.00 | 0.00 | 40 | |
| 20260505190909 | 23 | 316 | 6.4 | 14.5 | 0.00 | 0.00 | 0.00 | 40 | |
| 20260505190720 | 23 | 303 | 6.4 | 16.1 | 0.00 | 0.00 | 0.00 | 39 | |
| 20260505190408 | 23 | 303 | 6.4 | 16.1 | 0.00 | 0.00 | 0.00 | 39 | |
| 20260505185757 | 23 | 317 | 3.2 | 9.7 | 0.00 | 0.00 | 0.00 | 41 | |
| 20260505185408 | 23 | 317 | 3.2 | 9.7 | 0.00 | 0.00 | 0.00 | 41 | |
| 20260505185256 | 24 | 303 | 4.8 | 9.7 | 0.00 | 0.00 | 0.00 | 42 | |
| 20260505184908 | 24 | 303 | 4.8 | 9.7 | 0.00 | 0.00 | 0.00 | 42 | |
| 20260505184658 | 23 | 310 | 4.8 | 9.7 | 0.00 | 0.00 | 0.00 | 42 | |
| 20260505184408 | 23 | 310 | 4.8 | 9.7 | 0.00 | 0.00 | 0.00 | 42 | |
| 20260505183637 | 23 | 317 | 4.8 | 11.3 | 0.00 | 0.00 | 0.00 | 39 | |
| 20260505183408 | 23 | 317 | 4.8 | 11.3 | 0.00 | 0.00 | 0.00 | 39 | |
| 20260505183259 | 23 | 264 | 6.4 | 11.3 | 0.00 | 0.00 | 0.00 | 39 | |
| 20260505182908 | 23 | 264 | 6.4 | 11.3 | 0.00 | 0.00 | 0.00 | 39 | |
| 20260505182812 | 22 | 315 | 4.8 | 11.3 | 0.00 | 0.00 | 0.00 | 38 | |
| 20260505182408 | 22 | 315 | 4.8 | 11.3 | 0.00 | 0.00 | 0.00 | 38 | |
| 20260505182146 | 22 | 317 | 4.8 | 11.3 | 0.00 | 0.00 | 0.00 | 39 | |
| 20260505181908 | 22 | 317 | 4.8 | 11.3 | 0.00 | 0.00 | 0.00 | 39 | |
| 20260505181639 | 23 | 262 | 6.4 | 12.9 | 0.00 | 0.00 | 0.00 | 39 | |
| 20260505181408 | 23 | 262 | 6.4 | 12.9 | 0.00 | 0.00 | 0.00 | 39 | |
| 20260505181258 | 23 | 270 | 4.8 | 12.9 | 0.00 | 0.00 | 0.00 | 39 | |
| 20260505180908 | 23 | 270 | 4.8 | 12.9 | 0.00 | 0.00 | 0.00 | 39 | |
| 20260505180714 | 23 | 318 | 3.2 | 11.3 | 0.00 | 0.00 | 0.00 | 41 | |
| 20260505180408 | 23 | 318 | 3.2 | 11.3 | 0.00 | 0.00 | 0.00 | 41 | |
| 20260505180220 | 23 | 225 | 6.4 | 11.3 | 0.00 | 0.00 | 0.00 | 39 | |
| 20260505175909 | 23 | 225 | 6.4 | 11.3 | 0.00 | 0.00 | 0.00 | 39 | |
| 20260505175744 | 23 | 233 | 4.8 | 8.0 | 0.00 | 0.00 | 0.00 | 43 | |
| 20260505175408 | 23 | 233 | 4.8 | 8.0 | 0.00 | 0.00 | 0.00 | 43 | |
| 20260505175221 | 23 | 85 | 3.2 | 8.0 | 0.00 | 0.00 | 0.00 | 50 | |
| 20260505174908 | 23 | 85 | 3.2 | 8.0 | 0.00 | 0.00 | 0.00 | 50 | |
| 20260505174658 | 22 | 181 | 3.2 | 8.0 | 0.00 | 0.00 | 0.00 | 46 | |
| 20260505174408 | 22 | 181 | 3.2 | 8.0 | 0.00 | 0.00 | 0.00 | 46 | |
| 20260505174202 | 21 | 6 | 1.6 | 9.7 | 0.00 | 0.00 | 0.00 | 49 | |
| 20260505173908 | 21 | 6 | 1.6 | 9.7 | 0.00 | 0.00 | 0.00 | 49 | |
| 20260505173633 | 22 | 302 | 1.6 | 9.7 | 0.00 | 0.00 | 0.00 | 46 | |
| 20260505173408 | 22 | 302 | 1.6 | 9.7 | 0.00 | 0.00 | 0.00 | 46 | |
| 20260505173233 | 22 | 314 | 3.2 | 9.7 | 0.00 | 0.00 | 0.00 | 45 | |
| 20260505172908 | 22 | 314 | 3.2 | 9.7 | 0.00 | 0.00 | 0.00 | 45 | |
| 20260505172653 | 21 | 4 | 1.6 | 6.4 | 0.00 | 0.00 | 0.00 | 47 | |
| 20260505172408 | 21 | 4 | 1.6 | 6.4 | 0.00 | 0.00 | 0.00 | 47 | |
| 20260505172050 | 21 | 1 | 1.6 | 9.7 | 0.00 | 0.00 | 0.00 | 46 | |
| 20260505171908 | 21 | 1 | 1.6 | 9.7 | 0.00 | 0.00 | 0.00 | 46 | |
| 20260505171716 | 22 | 242 | 4.8 | 9.7 | 0.00 | 0.00 | 0.00 | 40 | |
| 20260505171408 | 22 | 242 | 4.8 | 9.7 | 0.00 | 0.00 | 0.00 | 40 | |
| 20260505171238 | 21 | 264 | 4.8 | 8.0 | 0.00 | 0.00 | 0.00 | 41 | |
| 20260505170908 | 21 | 264 | 4.8 | 8.0 | 0.00 | 0.00 | 0.00 | 41 | |
| 20260505170741 | 21 | 307 | 3.2 | 6.4 | 0.00 | 0.00 | 0.00 | 44 | |
| 20260505170408 | 21 | 307 | 3.2 | 6.4 | 0.00 | 0.00 | 0.00 | 44 | |
| 20260505170211 | 21 | 306 | 1.6 | 4.8 | 0.00 | 0.00 | 0.00 | 44 | |
| 20260505165908 | 21 | 306 | 1.6 | 4.8 | 0.00 | 0.00 | 0.00 | 44 | |
| 20260505165631 | 19 | 132 | 1.6 | 4.8 | 0.00 | 0.00 | 0.00 | 44 | |
| 20260505165408 | 19 | 132 | 1.6 | 4.8 | 0.00 | 0.00 | 0.00 | 44 | |
| 20260505165254 | 18 | 224 | 1.6 | 6.4 | 0.00 | 0.00 | 0.00 | 40 | |
| 20260505164908 | 18 | 224 | 1.6 | 6.4 | 0.00 | 0.00 | 0.00 | 40 | |
| 20260505164652 | 17 | 264 | 1.6 | 6.4 | 0.00 | 0.00 | 0.00 | 39 | |
| 20260505164408 | 17 | 264 | 1.6 | 6.4 | 0.00 | 0.00 | 0.00 | 39 | |
| 20260505164222 | 17 | 275 | 1.6 | 8.0 | 0.00 | 0.00 | 0.00 | 39 | |
| 20260505163908 | 17 | 275 | 1.6 | 8.0 | 0.00 | 0.00 | 0.00 | 39 | |
| 20260505163756 | 17 | 264 | 4.8 | 8.0 | 0.00 | 0.00 | 0.00 | 39 | |
| 20260505163408 | 17 | 264 | 4.8 | 8.0 | 0.00 | 0.00 | 0.00 | 39 | |
| 20260505163220 | 17 | 275 | 3.2 | 6.4 | 0.00 | 0.00 | 0.00 | 39 | |
| 20260505162908 | 17 | 275 | 3.2 | 6.4 | 0.00 | 0.00 | 0.00 | 39 | |
| 20260505162714 | 17 | 270 | 3.2 | 6.4 | 0.00 | 0.00 | 0.00 | 39 | |
| 20260505162408 | 17 | 270 | 3.2 | 6.4 | 0.00 | 0.00 | 0.00 | 39 | |
| 20260505162327 | 17 | 281 | 3.2 | 8.0 | 0.00 | 0.00 | 0.00 | 39 | |
| 20260505161908 | 17 | 281 | 3.2 | 8.0 | 0.00 | 0.00 | 0.00 | 39 | |
| 20260505161817 | 17 | 251 | 4.8 | 8.0 | 0.00 | 0.00 | 0.00 | 39 | |
| 20260505161408 | 17 | 251 | 4.8 | 8.0 | 0.00 | 0.00 | 0.00 | 39 | |
| 20260505161258 | 17 | 247 | 4.8 | 6.4 | 0.00 | 0.00 | 0.00 | 39 | |
| 20260505160908 | 17 | 247 | 4.8 | 6.4 | 0.00 | 0.00 | 0.00 | 39 | |
| 20260505160647 | 17 | 266 | 1.6 | 4.8 | 0.00 | 0.00 | 0.00 | 39 | |
| 20260505160408 | 17 | 266 | 1.6 | 4.8 | 0.00 | 0.00 | 0.00 | 39 | |
| 20260505160311 | 17 | 263 | 1.6 | 4.8 | 0.00 | 0.00 | 0.00 | 39 | |
| 20260505153241 | 15 | 255 | 0.0 | 0.0 | 0.00 | 0.00 | 0.00 | 39 | |
| 20260505152908 | 15 | 255 | 0.0 | 0.0 | 0.00 | 0.00 | 0.00 | 39 | |
| 20260505152728 | 15 | 243 | 0.0 | 0.0 | 0.00 | 0.00 | 0.00 | 39 | |
| 20260505152408 | 15 | 243 | 0.0 | 0.0 | 0.00 | 0.00 | 0.00 | 39 | |
| 20260505152240 | 15 | 256 | 0.0 | 0.0 | 0.00 | 0.00 | 0.00 | 39 | |
| 20260505151909 | 15 | 256 | 0.0 | 0.0 | 0.00 | 0.00 | 0.00 | 39 | |
| 20260505151711 | 15 | 252 | 0.0 | 0.0 | 0.00 | 0.00 | 0.00 | 39 | |
| 20260505151408 | 15 | 252 | 0.0 | 0.0 | 0.00 | 0.00 | 0.00 | 39 | |
| 20260505151312 | 15 | 85 | 0.0 | 0.0 | 0.00 | 0.00 | 0.00 | 39 | |
| 20260505150908 | 15 | 85 | 0.0 | 0.0 | 0.00 | 0.00 | 0.00 | 39 | |
| 20260505150733 | 14 | 152 | 0.0 | 0.0 | 0.00 | 0.00 | 0.00 | 39 | |
| 20260505150408 | 14 | 152 | 0.0 | 0.0 | 0.00 | 0.00 | 0.00 | 39 | |
| 20260505140617 | 13 | 81 | 0.0 | 0.0 | 0.00 | 0.00 | 0.00 | 40 | |
| 20260505140408 | 13 | 81 | 0.0 | 0.0 | 0.00 | 0.00 | 0.00 | 40 | |
| 20260505140237 | 13 | 62 | 0.0 | 3.2 | 0.00 | 0.00 | 0.00 | 40 | |
| 20260505130219 | 12 | 341 | 0.0 | 0.0 | 0.00 | 0.00 | 0.00 | 38 | |
| 20260505124908 | 12 | 227 | 0.0 | 0.0 | 0.00 | 0.00 | 0.00 | 38 | |
| 20260505124638 | 12 | 225 | 0.0 | 0.0 | 0.00 | 0.00 | 0.00 | 38 | |
| 20260505124408 | 12 | 225 | 0.0 | 0.0 | 0.00 | 0.00 | 0.00 | 38 | |
| 20260505124220 | 12 | 255 | 0.0 | 3.2 | 0.00 | 0.00 | 0.00 | 39 | |
| 20260505123908 | 12 | 255 | 0.0 | 3.2 | 0.00 | 0.00 | 0.00 | 39 | |
| 20260505123637 | 12 | 90 | 0.0 | 3.2 | 0.00 | 0.00 | 0.00 | 41 | |
| 20260505123408 | 12 | 90 | 0.0 | 3.2 | 0.00 | 0.00 | 0.00 | 41 | |
| 20260505123243 | 12 | 107 | 0.0 | 4.8 | 0.00 | 0.00 | 0.00 | 42 | |
| 20260505122908 | 12 | 107 | 0.0 | 4.8 | 0.00 | 0.00 | 0.00 | 42 | |
| 20260505122659 | 12 | 193 | 0.0 | 4.8 | 0.00 | 0.00 | 0.00 | 38 | |
| 20260505122408 | 12 | 193 | 0.0 | 4.8 | 0.00 | 0.00 | 0.00 | 38 | |
| 20260505122252 | 12 | 211 | 0.0 | 0.0 | 0.00 | 0.00 | 0.00 | 38 | |
| 20260505121908 | 12 | 211 | 0.0 | 0.0 | 0.00 | 0.00 | 0.00 | 38 | |
| 20260505121754 | 12 | 181 | 0.0 | 0.0 | 0.00 | 0.00 | 0.00 | 38 | |
| 20260505121408 | 12 | 181 | 0.0 | 0.0 | 0.00 | 0.00 | 0.00 | 38 | |
| 20260505121345 | 12 | 183 | 0.0 | 0.0 | 0.00 | 0.00 | 0.00 | 38 | |
| 20260505120908 | 12 | 183 | 0.0 | 0.0 | 0.00 | 0.00 | 0.00 | 38 | |
| 20260505120704 | 12 | 237 | 0.0 | 0.0 | 0.00 | 0.00 | 0.00 | 38 | |
| 20260505120408 | 12 | 237 | 0.0 | 0.0 | 0.00 | 0.00 | 0.00 | 38 | |
| 20260505120251 | 12 | 22 | 0.0 | 0.0 | 0.00 | 0.00 | 0.00 | 37 | |
| 20260505115908 | 12 | 22 | 0.0 | 0.0 | 0.00 | 0.00 | 0.00 | 37 | |
| 20260505115658 | 12 | 37 | 0.0 | 0.0 | 0.00 | 0.00 | 0.00 | 37 | |
| 20260505115511 | 12 | 298 | 0.0 | 0.0 | 0.00 | 0.00 | 0.00 | 38 |